STARLINK-34436

Last updated on Thu Jul 03 2025 00:02:06 GMT+0000 (Coordinated Universal Time)

1 64358U 25126Q 25183.58335648 -.01410157 00000+0 -17047-1 0 9993 2 64358 69.9992 310.2075 0003183 267.5490 322.2591 15.63225661 4328
UTC large
Height (km)
Speed (km/s)
/
Latitude / Longitude
Inclination (degrees)
Orbital Period (minutes)
Azimuth
Elevation
Range (km)
Doppler Factor

Next 0 passes for location: London (51.5072 / 0.1276)

Sorry there are no passes over London.